Time,TemperatureF,DewpointF,PressureIn,WindDirection,WindDirectionDegrees,WindSpeedMPH,WindSpeedGustMPH,Humidity,HourlyPrecipIn,Conditions,Clouds,dailyrainin,SoftwareType,DateUTC
2013-11-13 00:00:00,47.5,43.5,30.26,North,1,0.0,0.0,86,0.00,CLR,SKC,0.00,WeatherDisplay:10.37,2013-11-12 23:00:00,
2013-11-13 00:10:00,47.4,43.5,30.26,North,1,0.0,0.0,86,0.00,CLR,SKC,0.00,WeatherDisplay:10.37,2013-11-12 23:10:00,
2013-11-13 00:20:00,47.5,43.5,30.26,North,1,0.0,0.0,86,0.00,CLR,SKC,0.00,WeatherDisplay:10.37,2013-11-12 23:20:00,
2013-11-13 00:30:00,47.5,43.5,30.26,North,1,0.0,0.0,86,0.00,CLR,SKC,0.00,WeatherDisplay:10.37,2013-11-12 23:30:00,
2013-11-13 00:40:00,47.5,43.2,30.26,North,1,0.0,0.0,85,0.00,CLR,SKC,0.00,WeatherDisplay:10.37,2013-11-12 23:40:00,
2013-11-13 00:50:00,47.3,43.0,30.26,North,1,0.0,0.0,85,0.00,CLR,SKC,0.00,WeatherDisplay:10.37,2013-11-12 23:50:00,
2013-11-13 01:00:00,47.3,43.0,30.25,North,1,0.0,0.0,85,0.00,CLR,SKC,0.00,WeatherDisplay:10.37,2013-11-13 00:00:00,
2013-11-13 01:10:00,47.3,43.0,30.26,North,1,0.0,0.0,85,0.00,CLR,SKC,0.00,WeatherDisplay:10.37,2013-11-13 00:10:00,
2013-11-13 01:20:00,47.3,43.0,30.26,North,1,0.0,0.0,85,0.00,CLR,SKC,0.00,WeatherDisplay:10.37,2013-11-13 00:20:00,
2013-11-13 01:30:00,47.3,43.0,30.26,North,1,0.0,0.0,85,0.00,CLR,SKC,0.00,WeatherDisplay:10.37,2013-11-13 00:30:00,
2013-11-13 01:40:00,47.3,43.0,30.25,North,1,0.0,0.0,85,0.00,CLR,SKC,0.00,WeatherDisplay:10.37,2013-11-13 00:40:00,
2013-11-13 01:50:00,47.3,43.0,30.26,North,1,0.0,0.0,85,0.00,CLR,SKC,0.00,WeatherDisplay:10.37,2013-11-13 00:50:00,
2013-11-13 02:00:00,47.1,42.8,30.26,North,1,0.0,0.0,85,0.00,CLR,SKC,0.00,WeatherDisplay:10.37,2013-11-13 01:00:00,
2013-11-13 02:10:00,47.1,42.8,30.25,North,1,0.0,0.0,85,0.00,CLR,SKC,0.00,WeatherDisplay:10.37,2013-11-13 01:10:00,
2013-11-13 02:20:00,47.1,42.8,30.25,North,1,0.0,0.0,85,0.00,CLR,SKC,0.00,WeatherDisplay:10.37,2013-11-13 01:20:00,
2013-11-13 02:30:00,47.1,42.8,30.25,North,1,0.0,0.0,85,0.00,CLR,SKC,0.00,WeatherDisplay:10.37,2013-11-13 01:30:00,
2013-11-13 02:40:00,47.1,42.8,30.26,North,1,0.0,0.0,85,0.00,CLR,SKC,0.00,WeatherDisplay:10.37,2013-11-13 01:40:00,
2013-11-13 02:50:00,47.1,43.1,30.25,North,1,0.0,0.0,86,0.00,CLR,SKC,0.00,WeatherDisplay:10.37,2013-11-13 01:50:00,
2013-11-13 03:00:00,47.1,43.1,30.25,North,1,0.0,0.0,86,0.00,CLR,SKC,0.00,WeatherDisplay:10.37,2013-11-13 02:00:00,
2013-11-13 03:10:00,47.1,43.1,30.25,North,1,0.0,0.0,86,0.00,CLR,SKC,0.00,WeatherDisplay:10.37,2013-11-13 02:10:00,
2013-11-13 03:20:00,47.1,43.1,30.25,North,1,0.0,0.0,86,0.00,CLR,SKC,0.00,WeatherDisplay:10.37,2013-11-13 02:20:00,
2013-11-13 03:30:00,47.1,43.1,30.25,North,1,0.0,0.0,86,0.00,CLR,SKC,0.00,WeatherDisplay:10.37,2013-11-13 02:30:00,
2013-11-13 03:40:00,47.1,43.1,30.25,North,1,0.0,0.0,86,0.00,CLR,SKC,0.00,WeatherDisplay:10.37,2013-11-13 02:40:00,
2013-11-13 03:50:00,47.1,43.1,30.25,North,1,0.0,0.0,86,0.00,CLR,SKC,0.00,WeatherDisplay:10.37,2013-11-13 02:50:00,
2013-11-13 04:00:00,47.1,43.1,30.25,North,1,0.0,0.0,86,0.00,CLR,SKC,0.00,WeatherDisplay:10.37,2013-11-13 03:00:00,
2013-11-13 04:10:00,47.1,43.1,30.25,North,1,0.0,0.0,86,0.00,CLR,SKC,0.00,WeatherDisplay:10.37,2013-11-13 03:10:00,
2013-11-13 04:20:00,47.1,43.1,30.25,North,1,0.0,0.0,86,0.00,CLR,SKC,0.00,WeatherDisplay:10.37,2013-11-13 03:20:00,
2013-11-13 04:30:00,47.1,43.1,30.25,North,1,0.0,0.0,86,0.00,CLR,SKC,0.00,WeatherDisplay:10.37,2013-11-13 03:30:00,
2013-11-13 04:40:00,47.1,42.8,30.25,North,1,0.0,0.0,85,0.00,CLR,SKC,0.00,WeatherDisplay:10.37,2013-11-13 03:40:00,
2013-11-13 04:50:00,47.1,42.8,30.25,North,1,0.0,0.0,85,0.00,CLR,SKC,0.00,WeatherDisplay:10.37,2013-11-13 03:50:00,
2013-11-13 05:00:00,47.1,42.8,30.25,North,1,0.0,0.0,85,0.00,CLR,SKC,0.00,WeatherDisplay:10.37,2013-11-13 04:00:00,
2013-11-13 05:10:00,47.1,42.8,30.25,North,1,0.0,0.0,85,0.00,CLR,SKC,0.00,WeatherDisplay:10.37,2013-11-13 04:10:00,
2013-11-13 05:20:00,47.1,42.8,30.25,North,1,0.0,0.0,85,0.00,CLR,SKC,0.00,WeatherDisplay:10.37,2013-11-13 04:20:00,
2013-11-13 05:30:00,47.1,42.5,30.25,North,1,0.0,0.0,84,0.00,CLR,SKC,0.00,WeatherDisplay:10.37,2013-11-13 04:30:00,
2013-11-13 05:40:00,47.1,42.5,30.25,North,1,0.0,0.0,84,0.00,CLR,SKC,0.00,WeatherDisplay:10.37,2013-11-13 04:40:00,
2013-11-13 05:50:00,47.2,42.6,30.25,North,1,0.0,0.0,84,0.00,CLR,SKC,0.00,WeatherDisplay:10.37,2013-11-13 04:50:00,
2013-11-13 06:00:00,47.3,42.7,30.25,North,1,0.0,0.0,84,0.00,CLR,SKC,0.00,WeatherDisplay:10.37,2013-11-13 05:00:00,
2013-11-13 06:10:00,47.3,42.7,30.25,North,1,0.0,0.0,84,0.00,CLR,SKC,0.00,WeatherDisplay:10.37,2013-11-13 05:10:00,
2013-11-13 06:20:00,47.3,42.7,30.25,North,1,0.0,0.0,84,0.00,CLR,SKC,0.00,WeatherDisplay:10.37,2013-11-13 05:20:00,
2013-11-13 06:30:00,47.5,42.9,30.25,North,1,0.0,0.0,84,0.00,CLR,SKC,0.00,WeatherDisplay:10.37,2013-11-13 05:30:00,
2013-11-13 06:40:00,47.5,42.9,30.25,North,1,0.0,0.0,84,0.00,CLR,SKC,0.00,WeatherDisplay:10.37,2013-11-13 05:40:00,
2013-11-13 06:50:00,47.5,42.6,30.24,North,1,0.0,0.0,83,0.00,CLR,SKC,0.00,WeatherDisplay:10.37,2013-11-13 05:50:00,
2013-11-13 07:00:00,47.5,42.6,30.25,North,1,0.0,0.0,83,0.00,CLR,SKC,0.00,WeatherDisplay:10.37,2013-11-13 06:00:00,
2013-11-13 07:10:00,47.7,42.7,30.25,North,1,0.0,0.0,83,0.00,CLR,SKC,0.00,WeatherDisplay:10.37,2013-11-13 06:10:00,
2013-11-13 07:20:00,47.7,42.8,30.25,North,1,0.0,0.0,83,0.00,CLR,SKC,0.00,WeatherDisplay:10.37,2013-11-13 06:20:00,
2013-11-13 07:30:00,47.8,42.9,30.25,North,1,0.0,0.0,83,0.00,CLR,SKC,0.00,WeatherDisplay:10.37,2013-11-13 06:30:00,
2013-11-13 07:40:00,47.8,42.9,30.25,North,1,0.0,0.0,83,0.00,CLR,SKC,0.00,WeatherDisplay:10.37,2013-11-13 06:40:00,
2013-11-13 07:50:00,48.0,42.8,30.25,North,1,0.0,0.0,82,0.00,CLR,SKC,0.00,WeatherDisplay:10.37,2013-11-13 06:50:00,
2013-11-13 08:00:00,48.0,42.8,30.25,North,1,0.0,0.0,82,0.00,CLR,SKC,0.00,WeatherDisplay:10.37,2013-11-13 07:00:00,
2013-11-13 08:10:00,48.2,43.0,30.26,North,1,0.0,0.0,82,0.00,CLR,SKC,0.00,WeatherDisplay:10.37,2013-11-13 07:10:00,
2013-11-13 08:20:00,48.4,43.1,30.26,North,1,0.0,0.0,82,0.00,CLR,SKC,0.00,WeatherDisplay:10.37,2013-11-13 07:20:00,
2013-11-13 08:30:00,48.4,43.1,30.26,North,1,0.0,0.0,82,0.00,CLR,SKC,0.00,WeatherDisplay:10.37,2013-11-13 07:30:00,
2013-11-13 08:40:00,48.5,43.0,30.26,North,1,0.0,0.0,81,0.00,CLR,SKC,0.00,WeatherDisplay:10.37,2013-11-13 07:40:00,
2013-11-13 08:50:00,48.7,43.2,30.26,North,1,0.0,0.0,81,0.00,CLR,SKC,0.00,WeatherDisplay:10.37,2013-11-13 07:50:00,
2013-11-13 09:00:00,48.7,43.2,30.26,North,1,0.0,0.0,81,0.00,CLR,SKC,0.00,WeatherDisplay:10.37,2013-11-13 08:00:00,
2013-11-13 09:10:00,48.7,43.2,30.27,North,1,0.0,0.0,81,0.00,CLR,SKC,0.00,WeatherDisplay:10.37,2013-11-13 08:10:00,
2013-11-13 09:20:00,48.9,43.3,30.27,North,1,0.0,0.0,81,0.00,CLR,SKC,0.00,WeatherDisplay:10.37,2013-11-13 08:20:00,
2013-11-13 09:30:00,48.9,43.3,30.27,North,1,0.0,0.0,81,0.00,CLR,SKC,0.00,WeatherDisplay:10.37,2013-11-13 08:30:00,
2013-11-13 09:40:00,49.1,43.2,30.27,North,1,0.0,0.0,80,0.00,CLR,SKC,0.00,WeatherDisplay:10.37,2013-11-13 08:40:00,
2013-11-13 09:50:00,49.1,43.5,30.28,North,1,0.0,0.0,81,0.00,CLR,SKC,0.00,WeatherDisplay:10.37,2013-11-13 08:50:00,
2013-11-13 10:00:00,49.3,43.7,30.27,North,1,0.0,0.0,81,0.00,CLR,SKC,0.00,WeatherDisplay:10.37,2013-11-13 09:00:00,
2013-11-13 10:10:00,49.3,43.7,30.27,North,1,0.0,0.0,81,0.00,CLR,SKC,0.00,WeatherDisplay:10.37,2013-11-13 09:10:00,
2013-11-13 10:20:00,49.4,43.8,30.27,North,1,0.0,0.0,81,0.00,CLR,SKC,0.00,WeatherDisplay:10.37,2013-11-13 09:20:00,
2013-11-13 10:30:00,49.3,43.7,30.27,North,1,0.0,0.0,81,0.00,CLR,SKC,0.00,WeatherDisplay:10.37,2013-11-13 09:30:00,
2013-11-13 10:40:00,49.1,44.2,30.27,North,1,0.0,0.0,83,0.00,CLR,SKC,0.00,WeatherDisplay:10.37,2013-11-13 09:40:00,
2013-11-13 10:50:00,48.9,44.3,30.27,North,1,0.0,0.0,84,0.00,CLR,SKC,0.00,WeatherDisplay:10.37,2013-11-13 09:50:00,
2013-11-13 11:00:00,48.6,44.3,30.27,North,1,0.0,0.0,85,0.00,CLR,SKC,0.00,WeatherDisplay:10.37,2013-11-13 10:00:00,
2013-11-13 11:10:00,48.4,44.4,30.26,North,1,0.0,0.0,86,0.00,CLR,SKC,0.00,WeatherDisplay:10.37,2013-11-13 10:10:00,
2013-11-13 11:20:00,48.5,44.8,30.26,North,1,0.0,0.0,87,0.00,CLR,SKC,0.00,WeatherDisplay:10.37,2013-11-13 10:20:00,
2013-11-13 11:30:00,48.4,44.7,30.26,North,1,0.0,0.0,87,0.00,RA,SKC,0.02,WeatherDisplay:10.37,2013-11-13 10:30:00,
2013-11-13 11:40:00,48.5,45.2,30.26,North,1,0.0,0.0,88,0.00,,SKC,0.02,WeatherDisplay:10.37,2013-11-13 10:40:00,
2013-11-13 11:50:00,48.7,45.3,30.26,North,1,0.0,0.0,88,0.00,CLR,SKC,0.02,WeatherDisplay:10.37,2013-11-13 10:50:00,
2013-11-13 12:00:00,48.7,45.3,30.25,North,1,0.0,0.0,88,0.00,CLR,SKC,0.02,WeatherDisplay:10.37,2013-11-13 11:00:00,
2013-11-13 12:10:00,49.1,46.0,30.25,North,1,0.0,0.0,89,0.00,CLR,SKC,0.02,WeatherDisplay:10.37,2013-11-13 11:10:00,
2013-11-13 12:20:00,49.2,46.1,30.25,North,1,0.0,0.0,89,0.00,CLR,SKC,0.02,WeatherDisplay:10.37,2013-11-13 11:20:00,
2013-11-13 12:30:00,49.3,46.2,30.25,North,1,0.0,0.0,89,0.00,CLR,SKC,0.02,WeatherDisplay:10.37,2013-11-13 11:30:00,
2013-11-13 12:40:00,49.3,46.5,30.25,North,1,0.0,0.0,90,0.00,CLR,SKC,0.02,WeatherDisplay:10.37,2013-11-13 11:40:00,
2013-11-13 12:50:00,49.3,46.5,30.26,North,1,0.0,0.0,90,0.00,CLR,SKC,0.02,WeatherDisplay:10.37,2013-11-13 11:50:00,
2013-11-13 13:00:00,49.3,46.5,30.25,North,1,0.0,0.0,90,0.00,CLR,SKC,0.02,WeatherDisplay:10.37,2013-11-13 12:00:00,
2013-11-13 13:10:00,49.6,46.7,30.24,North,1,0.0,0.0,90,0.00,CLR,SKC,0.02,WeatherDisplay:10.37,2013-11-13 12:10:00,
2013-11-13 13:20:00,49.6,46.8,30.25,North,1,0.0,0.0,90,0.00,CLR,SKC,0.02,WeatherDisplay:10.37,2013-11-13 12:20:00,
2013-11-13 13:30:00,49.6,46.8,30.24,North,1,0.0,0.0,90,0.00,CLR,SKC,0.02,WeatherDisplay:10.37,2013-11-13 12:30:00,
2013-11-13 13:40:00,49.3,46.5,30.24,North,1,0.0,0.0,90,0.00,CLR,SKC,0.02,WeatherDisplay:10.37,2013-11-13 12:40:00,
2013-11-13 13:50:00,49.3,46.5,30.24,North,1,0.0,0.0,90,0.00,CLR,SKC,0.02,WeatherDisplay:10.37,2013-11-13 12:50:00,
2013-11-13 14:00:00,49.1,46.3,30.24,North,1,0.0,0.0,90,0.00,CLR,SKC,0.02,WeatherDisplay:10.37,2013-11-13 13:00:00,
2013-11-13 14:10:00,48.8,46.0,30.24,North,1,0.0,0.0,90,0.00,CLR,SKC,0.02,WeatherDisplay:10.37,2013-11-13 13:10:00,
2013-11-13 14:20:00,48.7,45.9,30.24,North,1,0.0,0.0,90,0.00,CLR,SKC,0.02,WeatherDisplay:10.37,2013-11-13 13:20:00,
2013-11-13 14:30:00,48.4,45.6,30.24,North,1,0.0,0.0,90,0.00,CLR,SKC,0.02,WeatherDisplay:10.37,2013-11-13 13:30:00,
2013-11-13 14:40:00,48.4,45.6,30.24,North,1,0.0,0.0,90,0.00,CLR,SKC,0.02,WeatherDisplay:10.37,2013-11-13 13:40:00,
2013-11-13 14:50:00,48.4,45.6,30.24,North,1,0.0,0.0,90,0.00,CLR,SKC,0.02,WeatherDisplay:10.37,2013-11-13 13:50:00,
2013-11-13 15:00:00,48.0,44.9,30.24,North,1,0.0,0.0,89,0.00,CLR,SKC,0.02,WeatherDisplay:10.37,2013-11-13 14:00:00,
2013-11-13 15:10:00,47.9,44.8,30.24,North,1,0.0,0.0,89,0.00,CLR,SKC,0.02,WeatherDisplay:10.37,2013-11-13 14:10:00,
2013-11-13 15:20:00,47.3,44.2,30.24,North,1,0.0,0.0,89,0.00,CLR,SKC,0.02,WeatherDisplay:10.37,2013-11-13 14:20:00,
2013-11-13 15:30:00,47.1,44.0,30.24,North,1,0.0,0.0,89,0.00,CLR,SKC,0.02,WeatherDisplay:10.37,2013-11-13 14:30:00,
2013-11-13 15:40:00,46.8,43.7,30.25,North,1,0.0,0.0,89,0.00,CLR,SKC,0.02,WeatherDisplay:10.37,2013-11-13 14:40:00,
2013-11-13 15:50:00,46.4,43.0,30.25,North,1,0.0,0.0,88,0.00,CLR,SKC,0.02,WeatherDisplay:10.37,2013-11-13 14:50:00,
2013-11-13 16:00:00,46.2,42.9,30.25,North,1,0.0,0.0,88,0.00,CLR,SKC,0.02,WeatherDisplay:10.37,2013-11-13 15:00:00,
2013-11-13 16:10:00,46.0,42.4,30.25,North,1,0.0,0.0,87,0.00,CLR,SKC,0.02,WeatherDisplay:10.37,2013-11-13 15:10:00,
2013-11-13 16:20:00,45.7,42.0,30.25,North,1,0.0,0.0,87,0.00,CLR,SKC,0.02,WeatherDisplay:10.37,2013-11-13 15:20:00,
2013-11-13 16:30:00,45.7,42.0,30.24,North,1,0.0,0.0,87,0.00,CLR,SKC,0.02,WeatherDisplay:10.37,2013-11-13 15:30:00,
2013-11-13 16:40:00,45.5,41.9,30.24,North,1,0.0,0.0,87,0.00,CLR,SKC,0.02,WeatherDisplay:10.37,2013-11-13 15:40:00,
2013-11-13 16:50:00,45.5,41.9,30.25,North,1,0.0,0.0,87,0.00,CLR,SKC,0.02,WeatherDisplay:10.37,2013-11-13 15:50:00,
2013-11-13 17:00:00,45.1,41.5,30.25,North,1,0.0,0.0,87,0.00,CLR,SKC,0.02,WeatherDisplay:10.37,2013-11-13 16:00:00,
2013-11-13 17:10:00,44.9,41.0,30.25,North,1,0.0,0.0,86,0.00,CLR,SKC,0.02,WeatherDisplay:10.37,2013-11-13 16:10:00,
2013-11-13 17:20:00,44.8,40.8,30.25,North,1,0.0,0.0,86,0.00,CLR,SKC,0.02,WeatherDisplay:10.37,2013-11-13 16:20:00,
2013-11-13 17:30:00,44.4,40.5,30.25,North,1,0.0,0.0,86,0.00,CLR,SKC,0.02,WeatherDisplay:10.37,2013-11-13 16:30:00,
2013-11-13 17:40:00,44.4,40.5,30.25,North,1,0.0,0.0,86,0.00,CLR,SKC,0.02,WeatherDisplay:10.37,2013-11-13 16:40:00,
2013-11-13 17:50:00,44.3,40.1,30.24,North,1,0.0,0.0,85,0.00,CLR,SKC,0.02,WeatherDisplay:10.37,2013-11-13 16:50:00,
2013-11-13 18:00:00,44.2,40.0,30.25,North,1,0.0,0.0,85,0.00,CLR,SKC,0.02,WeatherDisplay:10.37,2013-11-13 17:00:00,
2013-11-13 18:10:00,43.9,40.0,30.24,North,1,0.0,0.0,86,0.00,CLR,SKC,0.02,WeatherDisplay:10.37,2013-11-13 17:10:00,
2013-11-13 18:20:00,43.6,39.7,30.25,North,1,0.0,0.0,86,0.00,CLR,SKC,0.02,WeatherDisplay:10.37,2013-11-13 17:20:00,
2013-11-13 18:30:00,43.5,39.9,30.24,North,1,0.0,0.0,87,0.00,CLR,SKC,0.02,WeatherDisplay:10.37,2013-11-13 17:30:00,
2013-11-13 18:40:00,43.5,39.9,30.25,North,1,0.0,0.0,87,0.00,CLR,SKC,0.02,WeatherDisplay:10.37,2013-11-13 17:40:00,
2013-11-13 18:50:00,43.5,39.9,30.25,North,1,0.0,0.0,87,0.00,CLR,SKC,0.02,WeatherDisplay:10.37,2013-11-13 17:50:00,
2013-11-13 19:00:00,43.5,39.9,30.25,North,1,0.0,0.0,87,0.00,CLR,SKC,0.02,WeatherDisplay:10.37,2013-11-13 18:00:00,
2013-11-13 19:10:00,43.5,39.9,30.24,North,1,0.0,0.0,87,0.00,CLR,SKC,0.02,WeatherDisplay:10.37,2013-11-13 18:10:00,
2013-11-13 19:20:00,43.5,39.9,30.25,North,1,0.0,0.0,87,0.00,CLR,SKC,0.02,WeatherDisplay:10.37,2013-11-13 18:20:00,
2013-11-13 19:30:00,43.5,39.9,30.24,North,1,0.0,0.0,87,0.00,CLR,SKC,0.02,WeatherDisplay:10.37,2013-11-13 18:30:00,
2013-11-13 19:40:00,43.5,39.9,30.25,North,1,0.0,0.0,87,0.00,CLR,SKC,0.02,WeatherDisplay:10.37,2013-11-13 18:40:00,
2013-11-13 19:50:00,43.5,39.9,30.24,North,1,0.0,0.0,87,0.00,CLR,SKC,0.02,WeatherDisplay:10.37,2013-11-13 18:50:00,
2013-11-13 20:00:00,43.5,39.9,30.25,North,1,0.0,0.0,87,0.00,CLR,SKC,0.02,WeatherDisplay:10.37,2013-11-13 19:00:00,
2013-11-13 20:10:00,43.7,40.1,30.25,North,1,0.0,0.0,87,0.00,CLR,SKC,0.02,WeatherDisplay:10.37,2013-11-13 19:10:00,
2013-11-13 20:20:00,43.7,39.8,30.24,North,1,0.0,0.0,86,0.00,CLR,SKC,0.02,WeatherDisplay:10.37,2013-11-13 19:20:00,
2013-11-13 20:30:00,43.7,39.8,30.25,North,1,0.0,0.0,86,0.00,CLR,SKC,0.02,WeatherDisplay:10.37,2013-11-13 19:30:00,
2013-11-13 20:40:00,43.9,40.0,30.25,North,1,0.0,0.0,86,0.00,CLR,SKC,0.02,WeatherDisplay:10.37,2013-11-13 19:40:00,
2013-11-13 20:50:00,43.9,40.0,30.24,North,1,0.0,0.0,86,0.00,CLR,SKC,0.02,WeatherDisplay:10.37,2013-11-13 19:50:00,
2013-11-13 21:00:00,43.9,40.0,30.25,North,1,0.0,0.0,86,0.00,CLR,SKC,0.02,WeatherDisplay:10.37,2013-11-13 20:00:00,
2013-11-13 21:10:00,43.9,40.0,30.25,North,1,0.0,0.0,86,0.00,CLR,SKC,0.02,WeatherDisplay:10.37,2013-11-13 20:10:00,
2013-11-13 21:20:00,43.9,40.0,30.25,North,1,0.0,0.0,86,0.00,CLR,SKC,0.02,WeatherDisplay:10.37,2013-11-13 20:20:00,
2013-11-13 21:30:00,43.9,40.0,30.25,North,1,0.0,0.0,86,0.00,CLR,SKC,0.02,WeatherDisplay:10.37,2013-11-13 20:30:00,
2013-11-13 21:40:00,43.9,40.0,30.26,North,1,0.0,0.0,86,0.00,CLR,SKC,0.02,WeatherDisplay:10.37,2013-11-13 20:40:00,
2013-11-13 21:50:00,43.9,40.0,30.26,North,1,0.0,0.0,86,0.00,CLR,SKC,0.02,WeatherDisplay:10.37,2013-11-13 20:50:00,
2013-11-13 22:00:00,43.9,40.0,30.26,North,1,0.0,0.0,86,0.00,CLR,SKC,0.02,WeatherDisplay:10.37,2013-11-13 21:00:00,
2013-11-13 22:10:00,43.9,40.0,30.26,North,1,0.0,0.0,86,0.00,CLR,SKC,0.02,WeatherDisplay:10.37,2013-11-13 21:10:00,
2013-11-13 22:20:00,43.9,40.0,30.26,North,1,0.0,0.0,86,0.00,CLR,SKC,0.02,WeatherDisplay:10.37,2013-11-13 21:20:00,
2013-11-13 22:30:00,43.9,40.0,30.26,North,1,0.0,0.0,86,0.00,CLR,SKC,0.02,WeatherDisplay:10.37,2013-11-13 21:30:00,
2013-11-13 22:40:00,43.9,40.3,30.26,North,1,0.0,0.0,87,0.00,CLR,SKC,0.02,WeatherDisplay:10.37,2013-11-13 21:40:00,
2013-11-13 22:50:00,43.9,40.3,30.26,North,1,0.0,0.0,87,0.00,CLR,SKC,0.02,WeatherDisplay:10.37,2013-11-13 21:50:00,
2013-11-13 23:00:00,44.1,40.4,30.26,North,1,0.0,0.0,87,0.00,CLR,SKC,0.02,WeatherDisplay:10.37,2013-11-13 22:00:00,
2013-11-13 23:10:00,44.1,40.4,30.26,North,1,0.0,0.0,87,0.00,CLR,SKC,0.02,WeatherDisplay:10.37,2013-11-13 22:10:00,
2013-11-13 23:20:00,44.1,40.4,30.26,North,1,0.0,0.0,87,0.00,CLR,SKC,0.02,WeatherDisplay:10.37,2013-11-13 22:20:00,
2013-11-13 23:30:00,44.2,40.6,30.26,North,1,0.0,0.0,87,0.00,CLR,SKC,0.02,WeatherDisplay:10.37,2013-11-13 22:30:00,
2013-11-13 23:40:00,44.2,40.6,30.27,North,1,0.0,0.0,87,0.00,CLR,SKC,0.02,WeatherDisplay:10.37,2013-11-13 22:40:00,
2013-11-13 23:50:00,44.4,40.8,30.26,North,1,0.0,0.0,87,0.00,CLR,SKC,0.02,WeatherDisplay:10.37,2013-11-13 22:50:00,